Wind_Speed
40 40 36 33 33 33 32 31 31 30 29 31 30 29 26 26 26 25 25 24 23 21 22 23 23 25 25 25 26 27 28 27 28 28 27 26 28 33 35 33 32 33 34
38 39 39 36 35 35 36 34 35 33 30 29 28 27 26 26 26 25 25 25 25 25 25 25 25 24 24 24 23 25 26 26 27 28 28 29 28 28 30 35 38 40 38
35 36 37 37 36 38 37 36 35 35 34 32 30 29 28 29 28 27 27 28 28 28 27 28 28 28 28 27 28 29 29 29 31 31 30 29 30 31 32 32 34 36 38
30 30 34 37 38 39 38 37 36 41 34 34 32 34 32 32 31 31 31 30 30 30 30 30 30 30 30 31 31 31 31 31 31 31 32 34 36 36 35 38 39 39 40
26 27 32 36 38 38 39 37 37 37 36 36 39 37 36 35 35 34 34 34 33 34 34 33 32 33 33 33 34 34 35 35 35 36 37 38 38 40 41 41 44 46 47
33 32 34 37 37 37 38 37 39 39 41 39 41 39 41 39 39 38 37 37 37 38 38 38 37 37 38 38 39 39 39 39 39 40 41 43 44 47 48 47 49 51 52
34 33 32 33 35 38 39 39 41 44 48 42 44 41 42 43 43 40 40 39 40 41 41 41 41 41 42 41 42 43 43 43 45 45 45 47 49 51 53 53 52 50 49
35 36 36 34 35 37 38 37 39 40 43 47 47 44 43 41 45 45 42 41 43 42 42 43 43 43 43 43 43 44 44 45 46 48 50 51 53 55 56 55 55 55 54
38 39 38 36 33 35 36 37 38 37 38 47 49 47 48 45 42 46 46 43 43 43 42 42 43 43 43 43 44 46 48 49 51 53 54 56 58 58 58 57 58 59 57
40 39 37 36 35 35 36 35 34 35 34 35 42 50 48 46 48 47 45 47 48 49 48 44 44 44 45 47 49 50 50 52 52 52 51 50 45 45 48 51 53 56 58
42 40 40 41 40 38 35 36 35 35 35 35 34 41 47 48 48 48 45 47 47 46 51 50 47 48 48 46 47 47 45 44 40 39 39 39 40 43 46 51 54 54 53
43 42 40 39 39 38 37 37 36 36 37 37 35 32 38 45 45 45 44 45 45 46 49 51 51 48 44 42 42 40 36 36 36 35 37 41 44 46 48 49 49 47 48
42 36 36 38 40 41 38 37 37 36 36 34 37 32 34 36 41 42 41 42 42 39 38 41 43 40 39 36 36 35 36 36 36 39 42 45 46 47 48 47 45 43 42
43 40 39 40 40 39 37 36 35 36 38 37 34 30 38 38 38 37 33 33 34 33 34 35 36 31 32 33 34 36 37 38 39 43 45 45 44 44 43 42 40 37 37
46 43 39 39 38 37 36 34 34 33 33 30 30 28 28 26 29 29 26 28 30 30 31 32 29 30 31 32 35 36 37 40 40 41 41 40 38 37 36 35 33 32 31
45 41 37 37 35 35 35 33 31 32 29 28 29 28 19 22 25 23 25 26 29 30 33 29 29 30 31 33 35 37 38 38 38 38 35 33 31 30 28 28 27 27 26
41 37 35 34 34 35 34 31 30 31 31 33 31 29 22 18 21 27 33 35 36 35 36 32 30 31 31 33 35 35 35 34 34 32 30 27 26 25 24 23 22 22 24
37 35 33 34 35 35 34 31 28 28 31 31 31 30 31 33 36 36 36 36 38 38 33 29 29 30 32 33 33 31 32 31 29 26 22 23 22 20 19 19 20 21 22
36 36 34 33 35 35 32 28 25 27 27 34 34 32 29 29 30 34 35 37 37 33 28 28 30 31 31 29 29 30 29 26 23 21 21 21 19 18 17 19 19 20 22
34 35 34 34 35 32 29 26 28 31 29 28 29 29 30 32 35 38 39 37 33 30 29 28 29 29 27 27 28 28 25 23 21 20 17 15 17 18 17 18 19 21 23
37 37 37 37 35 30 27 26 30 35 33 31 27 26 35 38 39 38 37 31 28 28 27 28 27 26 25 25 27 25 22 20 18 17 15 16 16 16 16 18 20 22 23
39 38 38 36 33 28 24 24 23 25 29 38 34 33 38 39 38 38 32 26 27 27 26 26 24 23 24 24 25 21 19 19 18 18 16 16 16 18 20 22 23 23 23
37 35 34 33 30 27 25 25 27 33 37 41 38 36 38 38 38 32 26 26 26 26 26 24 23 22 23 24 21 19 18 18 18 19 17 17 18 19 20 22 22 21 22
32 31 30 30 29 28 28 28 28 31 34 36 34 34 33 34 32 28 26 27 26 26 24 23 23 21 22 24 20 19 18 18 17 18 18 18 19 20 20 21 21 24 25
33 32 32 31 29 29 31 32 30 31 33 34 34 32 31 31 30 28 27 27 27 25 24 23 23 22 22 23 20 19 18 18 17 17 19 19 19 19 21 22 23 22 21
33 32 32 32 32 32 32 34 34 32 34 37 36 35 34 33 32 30 29 28 27 26 26 25 24 24 23 22 20 19 18 18 19 19 19 20 19 19 20 19 19 20 23
Wind_Direction
283 284 285 284 283 284 285 279 274 265 262 262 257 254 251 250 250 250 246 245 240 242 246 244 246 246 249 251 252 253 256 256 258 259 259 259 255 258 270 272 272 270 268
286 286 285 285 281 281 282 278 269 263 257 259 253 247 246 243 242 243 245 245 244 240 241 245 246 248 251 254 261 268 265 267 267 265 264 266 266 264 261 262 267 271 272
291 288 285 283 281 279 276 275 266 262 257 252 248 247 245 247 244 243 244 246 247 248 249 251 251 250 247 249 253 254 257 262 263 267 269 268 270 272 270 271 271 271 271
296 288 283 280 277 276 275 271 260 260 253 251 252 247 245 244 245 244 244 247 249 250 249 249 252 254 255 257 257 258 259 261 263 264 266 267 266 268 271 274 274 273 273
297 286 283 280 277 275 271 266 263 265 250 250 251 249 248 246 246 247 248 249 251 253 253 255 256 258 260 262 264 265 264 263 263 265 267 267 267 270 272 273 279 280 277
298 285 274 276 277 275 271 265 260 260 258 255 252 249 251 250 248 248 251 252 254 255 257 258 258 260 262 265 267 268 268 266 265 266 269 269 272 273 275 273 271 270 277
295 291 288 283 279 278 278 274 268 259 257 253 248 249 250 253 253 251 252 253 255 257 260 261 262 263 264 265 266 268 269 270 269 269 271 271 273 276 279 278 275 274 272
294 289 287 284 280 275 275 276 276 274 266 255 255 254 246 250 254 254 253 257 257 258 259 261 263 265 266 267 268 270 271 272 273 273 273 274 275 276 278 277 276 275 273
290 285 286 286 281 278 273 274 274 275 270 266 259 253 254 250 248 251 249 257 257 259 263 264 265 267 269 271 273 273 273 274 274 275 276 277 277 277 277 277 277 276 272
286 285 287 286 284 282 280 278 272 271 272 271 267 259 255 254 254 253 254 255 257 258 257 264 271 271 271 273 273 273 272 273 273 275 277 278 279 280 278 276 275 276 274
287 288 291 289 287 286 282 279 277 272 269 267 267 269 265 257 257 256 257 261 262 266 266 262 265 271 270 273 274 274 274 273 275 275 277 279 284 285 281 278 278 277 276
285 287 287 285 285 285 283 279 277 274 271 267 269 268 268 268 263 260 259 262 266 269 265 264 268 269 268 271 273 272 270 272 274 281 286 285 286 283 280 278 278 276 272
290 288 284 281 281 281 278 276 273 269 267 264 268 269 268 267 265 266 265 266 266 266 267 269 269 269 272 271 270 273 274 278 281 284 286 286 284 281 279 277 274 271 268
288 290 287 284 282 279 276 273 267 262 266 272 268 262 258 271 270 265 265 263 264 268 269 271 273 271 272 270 272 274 276 279 284 288 290 290 286 281 276 271 271 267 266
289 289 287 282 278 277 275 270 270 265 263 266 255 256 261 263 267 263 262 264 268 272 273 272 270 273 270 272 275 276 281 287 293 293 292 289 284 277 273 273 270 267 265
286 285 282 279 276 274 273 274 268 262 245 246 261 265 270 263 258 261 259 264 267 275 278 271 275 272 273 273 277 282 289 294 295 295 293 288 282 276 275 271 266 263 260
283 282 280 278 275 275 276 275 269 260 256 246 246 250 248 254 251 254 259 265 271 273 279 277 274 274 275 278 284 291 295 297 296 295 292 283 278 275 271 265 260 256 253
281 280 277 276 275 275 276 274 266 259 252 250 247 244 250 253 253 252 255 264 271 279 278 273 275 275 279 286 292 297 298 298 295 290 283 277 274 269 265 261 257 252 253
278 277 276 274 274 274 274 268 262 264 254 247 250 247 253 250 242 251 263 269 276 275 270 274 276 280 287 295 299 300 299 295 286 282 278 272 265 256 259 261 259 257 256
275 273 273 274 275 275 271 259 251 249 253 250 247 242 245 246 253 259 264 269 270 265 270 274 280 286 295 297 300 302 295 286 280 277 268 264 265 263 262 264 264 262 262
273 271 270 272 275 270 263 250 242 243 254 260 254 244 236 243 250 255 262 264 257 263 271 277 283 292 294 298 304 299 285 280 281 259 251 261 267 269 271 271 267 268 269
270 268 270 272 271 265 254 244 236 232 233 243 256 242 239 248 251 254 260 255 258 266 273 278 285 291 297 302 302 288 282 277 269 251 253 261 266 271 272 273 274 277 279
271 270 268 266 262 249 245 245 237 232 238 246 250 244 244 247 251 255 249 252 260 266 272 278 286 292 299 303 294 282 279 269 261 249 252 262 268 274 278 279 278 279 283
270 269 266 264 259 249 242 242 247 246 240 240 241 243 246 249 251 247 246 252 257 265 270 277 285 291 297 303 290 282 275 264 259 253 258 265 272 276 277 278 280 284 287
271 268 263 261 260 253 246 241 241 244 241 239 243 245 246 245 243 241 246 251 258 263 268 276 284 289 294 302 288 282 272 262 258 260 260 262 266 274 278 279 282 284 286
271 268 263 261 258 253 252 250 248 241 244 242 244 246 245 243 240 240 245 252 257 262 268 275 282 284 289 298 289 283 271 257 254 258 264 269 273 276 279 279 280 286 291
Height
5741 5739 5739 5739 5737 5736 5736 5735 5735 5734 5734 5734 5734 5734 5734 5735 5736 5737 5739 5740 5741 5742 5743 5745 5746 5747 5748 5749 5750 5751 5752 5753 5753 5753 5754 5755 5756 5756 5757 5758 5758 5758 5759
5735 5733 5731 5731 5729 5728 5726 5725 5725 5726 5726 5726 5727 5726 5728 5728 5729 5731 5733 5734 5736 5737 5738 5739 5740 5741 5742 5742 5743 5744 5745 5746 5747 5747 5747 5747 5748 5748 5749 5749 5749 5749 5749
5728 5725 5722 5721 5720 5719 5716 5716 5716 5717 5719 5719 5719 5720 5720 5722 5723 5724 5726 5728 5729 5730 5731 5733 5733 5734 5735 5736 5737 5738 5738 5739 5740 5740 5740 5740 5740 5740 5740 5741 5740 5740 5740
5719 5716 5714 5712 5711 5709 5708 5706 5707 5707 5709 5711 5712 5713 5714 5715 5716 5717 5718 5720 5722 5723 5725 5726 5727 5727 5728 5729 5730 5731 5731 5731 5732 5733 5733 5732 5733 5733 5734 5731 5731 5731 5731
5708 5707 5705 5702 5701 5699 5698 5697 5698 5698 5699 5701 5703 5704 5705 5707 5708 5710 5711 5712 5714 5715 5716 5717 5718 5719 5720 5720 5721 5721 5722 5723 5723 5723 5723 5724 5725 5724 5725 5725 5721 5719 5719
5702 5698 5695 5692 5691 5690 5689 5689 5689 5690 5690 5689 5693 5694 5696 5697 5698 5700 5702 5704 5705 5706 5707 5708 5709 5710 5711 5711 5712 5712 5713 5713 5714 5714 5713 5713 5712 5712 5712 5713 5713 5712 5708
5693 5691 5686 5683 5682 5682 5680 5679 5679 5679 5679 5680 5681 5684 5686 5688 5690 5690 5692 5694 5695 5697 5698 5698 5699 5700 5701 5701 5702 5702 5702 5702 5702 5702 5702 5701 5701 5700 5698 5698 5698 5699 5699
5686 5683 5679 5674 5673 5673 5671 5670 5669 5669 5670 5670 5671 5673 5675 5678 5681 5682 5682 5683 5685 5686 5687 5688 5689 5690 5690 5691 5690 5691 5691 5690 5690 5689 5689 5688 5687 5686 5685 5685 5684 5685 5685
5677 5674 5670 5666 5664 5663 5662 5661 5660 5659 5660 5660 5660 5661 5664 5666 5669 5670 5671 5673 5674 5675 5676 5677 5678 5679 5679 5679 5679 5679 5678 5677 5676 5675 5674 5674 5673 5672 5671 5670 5669 5668 5669
5667 5665 5661 5659 5656 5654 5652 5651 5651 5650 5649 5649 5650 5650 5652 5653 5656 5658 5659 5661 5663 5664 5665 5666 5667 5667 5667 5667 5667 5666 5665 5664 5663 5662 5661 5660 5659 5658 5657 5656 5655 5653 5652
5656 5655 5652 5648 5646 5644 5642 5641 5640 5640 5640 5640 5640 5640 5642 5643 5645 5647 5649 5650 5652 5653 5654 5655 5655 5656 5656 5656 5655 5654 5653 5652 5651 5650 5650 5648 5647 5645 5643 5641 5639 5637 5636
5646 5644 5641 5640 5636 5633 5632 5631 5630 5630 5630 5630 5630 5631 5632 5633 5634 5635 5637 5639 5641 5641 5641 5643 5644 5644 5645 5644 5643 5642 5642 5641 5639 5638 5636 5635 5632 5630 5627 5625 5624 5623 5622
5634 5633 5629 5628 5626 5624 5622 5621 5620 5620 5620 5621 5622 5622 5624 5625 5626 5627 5629 5630 5631 5630 5631 5632 5633 5632 5633 5633 5632 5632 5631 5629 5627 5624 5623 5620 5617 5614 5612 5611 5610 5609 5609
5621 5621 5618 5616 5614 5612 5611 5610 5610 5609 5609 5610 5612 5613 5614 5616 5617 5618 5620 5620 5620 5621 5622 5622 5623 5622 5623 5623 5622 5621 5620 5617 5614 5610 5607 5603 5600 5599 5599 5597 5597 5597 5598
5609 5607 5605 5604 5603 5601 5600 5600 5599 5599 5601 5602 5604 5605 5606 5606 5608 5610 5611 5612 5612 5613 5614 5614 5614 5614 5614 5613 5612 5611 5608 5604 5599 5596 5593 5590 5588 5587 5586 5586 5586 5587 5589
5597 5595 5593 5593 5592 5591 5591 5590 5590 5590 5591 5592 5594 5597 5597 5599 5601 5603 5604 5604 5605 5606 5606 5606 5606 5605 5604 5603 5602 5599 5595 5590 5587 5584 5581 5579 5578 5577 5577 5577 5578 5580 5581
5586 5584 5582 5582 5582 5580 5580 5580 5579 5580 5581 5583 5585 5588 5590 5592 5594 5596 5596 5597 5598 5598 5598 5598 5597 5596 5595 5593 5591 5587 5583 5580 5576 5574 5572 5571 5571 5570 5570 5571 5572 5573 5575
5574 5573 5573 5572 5571 5570 5570 5569 5569 5570 5572 5575 5577 5579 5582 5584 5586 5586 5587 5589 5590 5590 5590 5589 5588 5588 5586 5583 5580 5576 5572 5570 5567 5566 5566 5565 5565 5565 5565 5566 5567 5568 5569
5563 5562 5562 5561 5561 5560 5559 5560 5560 5562 5564 5566 5569 5571 5575 5576 5576 5577 5579 5581 5582 5582 5581 5581 5581 5579 5577 5573 5569 5567 5564 5562 5561 5561 5561 5560 5561 5561 5561 5561 5562 5563 5563
5552 5552 5551 5551 5551 5550 5549 5550 5552 5553 5555 5558 5560 5563 5566 5567 5568 5569 5572 5573 5574 5574 5574 5573 5572 5570 5567 5564 5562 5559 5557 5556 5556 5556 5555 5556 5557 5557 5557 5557 5557 5557 5557
5541 5541 5541 5541 5541 5541 5540 5542 5543 5545 5547 5549 5551 5554 5556 5557 5559 5561 5563 5565 5565 5566 5566 5565 5564 5562 5560 5557 5554 5552 5551 5551 5551 5551 5551 5552 5552 5553 5553 5553 5552 5552 5552
5529 5530 5529 5529 5531 5531 5532 5533 5535 5537 5539 5540 5543 5545 5547 5549 5552 5554 5556 5557 5558 5559 5559 5558 5557 5555 5553 5550 5548 5546 5546 5546 5546 5546 5547 5547 5548 5548 5548 5548 5547 5547 5546
5517 5518 5518 5519 5521 5522 5523 5525 5528 5530 5531 5533 5534 5536 5539 5541 5544 5546 5547 5549 5551 5551 5552 5551 5550 5548 5546 5544 5542 5541 5541 5541 5541 5541 5542 5542 5543 5543 5542 5542 5541 5541 5540
5506 5507 5508 5509 5510 5512 5514 5517 5519 5521 5522 5523 5526 5529 5531 5533 5536 5538 5540 5542 5543 5544 5545 5544 5543 5542 5541 5539 5537 5536 5536 5536 5536 5537 5537 5538 5538 5537 5537 5536 5535 5534 5533
5496 5497 5498 5499 5500 5502 5504 5507 5509 5512 5515 5516 5519 5521 5523 5525 5528 5530 5533 5534 5536 5537 5537 5538 5537 5536 5535 5533 5531 5531 5531 5531 5532 5532 5532 5532 5532 5532 5531 5530 5529 5528 5527
5485 5486 5487 5488 5490 5492 5494 5497 5499 5502 5505 5508 5510 5512 5515 5517 5520 5522 5525 5527 5528 5529 5530 5531 5530 5529 5528 5528 5526 5525 5525 5526 5526 5527 5527 5527 5527 5526 5525 5525 5524 5523 5521